Location: Irma
(52.9170°N, 111.2330°W)
Time: 22:53:18
(UTC-06:00)

Amateur Radio Satellites - All Passes

Search period start: 15 September 2014 22:23
Search period end: 16 September 2014 22:23
Location: Irma, 52.9170°N, 111.2330°W

Satellite Date Start Highest point End Downlink Frequencies (MHz)
Time Altitude Azimuth
PCSat 15 Sep 22:32:33 22:38:00 76° 235° (SW) 22:43:24 145.825 MHz
FUNcube-1 15 Sep 22:37:22 22:41:46 77° 73° (ENE) 22:46:18 145.950 - 145.970 MHz USB
Oscar 11 15 Sep 22:59:53 23:03:48 32° 265° (W) 23:07:45 145.825 FM, Beacon 2401.500 USB
UKube-1 15 Sep 23:13:32 23:16:31 18° 270° (W) 23:19:31 145.840 MHz, 145.915 MHz
KITSAT 1 15 Sep 23:15:55 23:23:49 54° 325° (NW) 23:31:45 435.175 FM
SO-50 15 Sep 23:17:36 23:19:30 13° 109° (ESE) 23:21:26 436.795 FM
Saudisat 1A 15 Sep 23:38:50 23:41:57 18° 2° (N) 23:45:03 436.775 MHz
Sapphire 15 Sep 23:48:58 23:53:25 26° 249° (WSW) 23:57:50 437.095 MHz 1200 baud AX-25 AFSK
FUNcube-1 16 Sep 00:16:01 00:18:45 16° 273° (W) 00:21:33 145.950 - 145.970 MHz USB
PCSat 16 Sep 00:17:23 00:20:33 16° 255° (WSW) 00:23:42 145.825 MHz
SO-50 16 Sep 00:54:43 00:59:13 69° 130° (SE) 01:03:51 436.795 FM
KITSAT 1 16 Sep 01:13:53 01:21:03 33° 353° (N) 01:28:14 435.175 FM
UOSAT-12 16 Sep 01:17:11 01:20:06 17° 112° (ESE) 01:23:04 437.025 FM, 437.400 FM
Saudisat 1A 16 Sep 01:18:56 01:22:49 29° 26° (NNE) 01:26:42 436.775 MHz
Oscar 19 16 Sep 01:34:17 01:36:30 13° 83° (E) 01:38:43 437.125 CW, 437.150 USB
Oscar 16 16 Sep 02:10:56 02:15:14 26° 92° (E) 02:19:29 437.025 USB, Beacon 2401.1428
JAS-1B 16 Sep 02:16:57 02:20:33 16° 83° (E) 02:24:01 435.800 - 435.900 CW/SSB
OPAL 16 Sep 02:28:03 02:28:58 10° 39° (NE) 02:29:54 ?
SO-50 16 Sep 02:35:59 02:40:09 33° 332° (NNW) 02:44:26 436.795 FM
ITAMSAT 1 16 Sep 02:45:59 02:50:05 23° 91° (E) 02:54:11 435.822 SSB
Uribyol 2 16 Sep 02:51:05 02:55:28 26° 92° (E) 02:59:50 436.500 FM
TMSAT-1 16 Sep 02:52:20 02:53:16 10° 81° (E) 02:54:12 436.925 FM
UOSAT-12 16 Sep 02:54:55 02:59:35 84° 133° (SE) 03:04:21 437.025 FM, 437.400 FM
AO-Echo 16 Sep 02:56:25 03:00:37 30° 95° (E) 03:04:53 ?
Saudisat 1A 16 Sep 02:58:26 03:02:53 82° 228° (SW) 03:07:18 436.775 MHz
KITSAT 1 16 Sep 03:11:10 03:18:42 39° 22° (NNE) 03:26:11 435.175 FM
Oscar 19 16 Sep 03:11:37 03:16:50 72° 104° (ESE) 03:21:59 437.125 CW, 437.150 USB
AO-27 16 Sep 03:19:27 03:24:24 41° 98° (E) 03:29:19 436.795 MHz FM
Oscar 10/S400 16 Sep 03:35:11 04:30:40 22° 236° (SW) 07:00:20 145.825 - 145.975 CW/USB, Beacon 145.810 USB
RS-15 16 Sep 03:43:59 03:48:57 14° 93° (E) 03:53:53 29.354 - 29.394 USB, Beacon 29.352 USB
Gurwin Techsat 1B 16 Sep 03:49:31 03:54:30 39° 96° (E) 03:59:26 435.225 FM
Oscar 16 16 Sep 03:49:51 03:54:58 59° 292° (WNW) 04:00:03 437.025 USB, Beacon 2401.1428
OPAL 16 Sep 04:01:46 04:06:35 40° 60° (ENE) 04:11:26 ?
JAS-1B 16 Sep 04:06:17 04:12:27 88° 107° (ESE) 04:18:07 435.800 - 435.900 CW/SSB
SO-50 16 Sep 04:18:32 04:22:00 20° 356° (N) 04:25:31 436.795 FM
ITAMSAT 1 16 Sep 04:24:53 04:30:04 67° 291° (WNW) 04:35:14 435.822 SSB
TMSAT-1 16 Sep 04:29:04 04:34:21 60° 101° (ESE) 04:39:35 436.925 FM
Uribyol 2 16 Sep 04:30:11 04:35:19 58° 292° (WNW) 04:40:26 436.500 FM
AO-Echo 16 Sep 04:35:03 04:39:35 45° 294° (WNW) 04:44:12 ?
UOSAT-12 16 Sep 04:36:04 04:40:15 31° 335° (NNW) 04:44:29 437.025 FM, 437.400 FM
AO-7 16 Sep 04:36:30 04:43:06 25° 89° (E) 04:49:38 29.400 - 29.500 MHz
Saudisat 1A 16 Sep 04:39:16 04:41:48 15° 248° (WSW) 04:44:19 436.775 MHz
Oscar 19 16 Sep 04:51:40 04:55:44 24° 304° (NW) 04:59:46 437.125 CW, 437.150 USB
AO-27 16 Sep 04:59:07 05:03:54 38° 298° (WNW) 05:08:41 436.795 MHz FM
KITSAT 1 16 Sep 05:07:02 05:15:11 84° 48° (NE) 05:23:17 435.175 FM
Gurwin Techsat 1B 16 Sep 05:29:34 05:34:32 41° 296° (WNW) 05:39:28 435.225 FM
Oscar 16 16 Sep 05:30:50 05:33:21 14° 312° (NW) 05:35:52 437.025 USB, Beacon 2401.1428
JAS-2 16 Sep 05:39:13 05:41:31 12° 84° (E) 05:43:54 435.800 - 435.900 CW/SSB, 435.910 FM
OPAL 16 Sep 05:40:36 05:45:28 41° 260° (W) 05:50:25 ?
Uosat F 16 Sep 05:41:16 05:46:10 51° 100° (E) 05:51:03 435.120 FM
RS-15 16 Sep 05:48:00 05:58:31 55° 118° (ESE) 06:08:58 29.354 - 29.394 USB, Beacon 29.352 USB
JAS-1B 16 Sep 05:57:51 06:02:20 22° 312° (NW) 06:06:33 435.800 - 435.900 CW/SSB
SO-50 16 Sep 06:00:01 06:04:00 26° 21° (NNE) 06:08:03 436.795 FM
ISS 16 Sep 06:02:20 06:05:23 33° 155° (SSE) 06:08:25 145.800 FM
ITAMSAT 1 16 Sep 06:05:48 06:08:41 15° 311° (NW) 06:11:35 435.822 SSB
TMSAT-1 16 Sep 06:09:30 06:13:59 28° 302° (WNW) 06:18:26 436.925 FM
Hamsat 16 Sep 06:10:24 06:12:46 14° 86° (E) 06:15:05 145.90 MHz
Uribyol 2 16 Sep 06:11:19 06:13:48 14° 313° (NW) 06:16:17 436.500 FM
STRAND 1 16 Sep 06:15:16 06:19:54 37° 62° (ENE) 06:24:34 ?
UOSAT-12 16 Sep 06:18:14 06:21:45 20° 359° (N) 06:25:17 437.025 FM, 437.400 FM
AO-7 16 Sep 06:28:41 06:37:02 89° 111° (ESE) 06:45:20 29.400 - 29.500 MHz
KITSAT 1 16 Sep 07:03:01 07:09:52 32° 251° (WSW) 07:16:40 435.175 FM
Gurwin Techsat 1B 16 Sep 07:12:49 07:13:12 10° 318° (NW) 07:13:35 435.225 FM
Uosat F 16 Sep 07:20:26 07:24:47 30° 300° (WNW) 07:29:07 435.120 FM
JAS-2 16 Sep 07:22:00 07:27:38 64° 102° (ESE) 07:33:56 435.800 - 435.900 CW/SSB, 435.910 FM
ISS 16 Sep 07:38:32 07:41:51 70° 174° (S) 07:45:11 145.800 FM
SO-50 16 Sep 07:40:32 07:45:19 72° 43° (NE) 07:50:09 436.795 FM
Hamsat 16 Sep 07:45:00 07:49:19 80° 286° (WNW) 07:53:34 145.90 MHz
STRAND 1 16 Sep 07:54:17 07:59:05 41° 262° (W) 08:03:55 ?
UOSAT-12 16 Sep 07:59:11 08:03:18 28° 23° (NNE) 08:07:24 437.025 FM, 437.400 FM
RS-15 16 Sep 07:59:51 08:10:45 67° 325° (NW) 08:21:45 29.354 - 29.394 USB, Beacon 29.352 USB
AO-7 16 Sep 08:22:02 08:29:03 32° 314° (NW) 08:36:02 29.400 - 29.500 MHz
SO-67 16 Sep 08:42:50 08:46:19 75° 102° (ESE) 08:49:46 435.3500 MHz FM
JAS-2 16 Sep 09:07:45 09:12:30 29° 301° (WNW) 09:17:40 435.800 - 435.900 CW/SSB, 435.910 FM
ISS 16 Sep 09:15:11 09:18:28 56° 194° (SSW) 09:21:44 145.800 FM
SO-50 16 Sep 09:21:38 09:25:32 25° 243° (WSW) 09:29:28 436.795 FM
Hamsat 16 Sep 09:22:27 09:24:36 14° 306° (NW) 09:26:44 145.90 MHz
HO-68 16 Sep 09:28:23 09:34:16 27° 90° (E) 09:40:07 435.675 MHz FM
MaSat-1 16 Sep 09:31:17 09:35:28 27° 109° (ESE) 09:39:35 437.345 MHz
UOSAT-12 16 Sep 09:39:19 09:44:06 83° 45° (NE) 09:48:49 437.025 FM, 437.400 FM
RS-15 16 Sep 10:14:52 10:25:15 45° 357° (N) 10:35:50 29.354 - 29.394 USB, Beacon 29.352 USB
AO-7 16 Sep 10:15:30 10:19:23 14° 340° (NNW) 10:23:15 29.400 - 29.500 MHz
SO-67 16 Sep 10:17:19 10:18:52 13° 302° (WNW) 10:20:24 435.3500 MHz FM
FUNcube-1 16 Sep 10:22:35 10:24:05 11° 83° (E) 10:25:34 145.950 - 145.970 MHz USB
Oscar 11 16 Sep 10:41:02 10:44:58 31° 95° (E) 10:48:50 145.825 FM, Beacon 2401.500 USB
ISS 16 Sep 10:52:14 10:54:45 20° 213° (SSW) 10:57:16 145.800 FM
UKube-1 16 Sep 10:53:51 10:58:08 51° 101° (E) 11:02:22 145.840 MHz, 145.915 MHz
MaSat-1 16 Sep 11:06:58 11:12:01 64° 308° (NW) 11:16:52 437.345 MHz
HO-68 16 Sep 11:15:34 11:22:46 81° 292° (WNW) 11:29:57 435.675 MHz FM
UOSAT-12 16 Sep 11:20:16 11:23:44 21° 245° (WSW) 11:27:11 437.025 FM, 437.400 FM
JAS-1B 16 Sep 11:22:46 11:25:02 12° 35° (NE) 11:27:12 435.800 - 435.900 CW/SSB
FUNcube-1 16 Sep 11:56:39 12:01:19 73° 103° (ESE) 12:05:56 145.950 - 145.970 MHz USB
Oscar 16 16 Sep 11:57:29 12:00:20 15° 49° (NE) 12:03:10 437.025 USB, Beacon 2401.1428
AO-7 16 Sep 12:06:10 12:08:46 12° 8° (N) 12:11:22 29.400 - 29.500 MHz
Oscar 11 16 Sep 12:17:11 12:21:13 37° 294° (WNW) 12:25:13 145.825 FM, Beacon 2401.500 USB
RS-15 16 Sep 12:29:09 12:40:00 60° 30° (NNE) 12:51:11 29.354 - 29.394 USB, Beacon 29.352 USB
UKube-1 16 Sep 12:30:33 12:34:05 25° 300° (WNW) 12:37:37 145.840 MHz, 145.915 MHz
ITAMSAT 1 16 Sep 12:33:42 12:36:19 14° 48° (NE) 12:38:56 435.822 SSB
Uribyol 2 16 Sep 12:38:20 12:41:21 16° 49° (NE) 12:44:22 436.500 FM
AO-Echo 16 Sep 12:39:40 12:42:06 14° 51° (NE) 12:44:31 ?
MaSat-1 16 Sep 12:46:02 12:49:41 20° 329° (NNW) 12:53:11 437.345 MHz
Sapphire 16 Sep 12:54:56 12:58:19 17° 106° (ESE) 13:01:43 437.095 MHz 1200 baud AX-25 AFSK
Oscar 19 16 Sep 12:56:05 13:00:45 34° 62° (ENE) 13:05:25 437.125 CW, 437.150 USB
HO-68 16 Sep 13:04:03 13:09:35 25° 314° (NW) 13:15:08 435.675 MHz FM
AO-27 16 Sep 13:05:58 13:09:56 23° 55° (NE) 13:13:55 436.795 MHz FM
JAS-1B 16 Sep 13:06:37 13:13:56 37° 58° (ENE) 13:20:12 435.800 - 435.900 CW/SSB
PCSat 16 Sep 13:20:52 13:25:24 28° 112° (ESE) 13:29:58 145.825 MHz
Oscar 16 16 Sep 13:33:39 13:38:47 66° 70° (ENE) 13:43:58 437.025 USB, Beacon 2401.1428
FUNcube-1 16 Sep 13:33:52 13:37:14 20° 302° (WNW) 13:40:37 145.950 - 145.970 MHz USB
Gurwin Techsat 1B 16 Sep 13:38:40 13:42:40 22° 55° (NE) 13:46:40 435.225 FM
AO-7 16 Sep 13:52:43 13:58:35 22° 35° (NE) 14:04:26 29.400 - 29.500 MHz
ITAMSAT 1 16 Sep 14:09:47 14:14:52 61° 69° (ENE) 14:19:59 435.822 SSB
Uribyol 2 16 Sep 14:14:51 14:19:59 70° 70° (ENE) 14:25:10 436.500 FM
AO-Echo 16 Sep 14:15:24 14:20:08 72° 72° (ENE) 14:24:50 ?
TMSAT-1 16 Sep 14:17:12 14:21:48 31° 60° (ENE) 14:26:25 436.925 FM
MaSat-1 16 Sep 14:27:22 14:28:17 11° 352° (N) 14:29:11 437.345 MHz
Oscar 19 16 Sep 14:35:01 14:40:00 46° 261° (W) 14:45:02 437.125 CW, 437.150 USB
Sapphire 16 Sep 14:35:32 14:40:57 81° 126° (SE) 14:46:24 437.095 MHz 1200 baud AX-25 AFSK
RS-15 16 Sep 14:41:55 14:52:46 66° 237° (WSW) 15:04:02 29.354 - 29.394 USB, Beacon 29.352 USB
AO-27 16 Sep 14:43:48 14:48:58 75° 255° (WSW) 14:54:12 436.795 MHz FM
JAS-1B 16 Sep 14:55:45 15:04:18 67° 257° (WSW) 15:11:26 435.800 - 435.900 CW/SSB
PCSat 16 Sep 15:03:03 15:08:27 68° 313° (NW) 15:13:54 145.825 MHz
Oscar 16 16 Sep 15:14:30 15:18:37 23° 269° (W) 15:22:45 437.025 USB, Beacon 2401.1428
Gurwin Techsat 1B 16 Sep 15:16:47 15:22:06 81° 255° (WSW) 15:27:27 435.225 FM
Uosat F 16 Sep 15:23:15 15:27:15 25° 57° (ENE) 15:31:17 435.120 FM
AO-7 16 Sep 15:41:47 15:49:52 59° 59° (ENE) 15:57:57 29.400 - 29.500 MHz
ITAMSAT 1 16 Sep 15:50:35 15:54:47 25° 268° (W) 15:59:01 435.822 SSB
Uribyol 2 16 Sep 15:56:04 15:59:59 22° 270° (W) 16:03:57 436.500 FM
AO-Echo 16 Sep 15:56:12 15:59:27 18° 271° (W) 16:02:42 ?
TMSAT-1 16 Sep 15:56:22 16:01:32 53° 260° (W) 16:06:44 436.925 FM
JAS-2 16 Sep 16:00:51 16:02:27 11° 44° (NE) 16:04:03 435.800 - 435.900 CW/SSB, 435.910 FM
MaSat-1 16 Sep 16:05:17 16:07:08 12° 16° (NNE) 16:08:55 437.345 MHz
Sapphire 16 Sep 16:20:07 16:24:57 32° 329° (NNW) 16:29:48 437.095 MHz 1200 baud AX-25 AFSK
AO-27 16 Sep 16:26:58 16:29:25 13° 276° (W) 16:31:53 436.795 MHz FM
PCSat 16 Sep 16:48:23 16:52:50 25° 337° (NNW) 16:57:18 145.825 MHz
JAS-1B 16 Sep 16:51:02 16:56:00 17° 276° (W) 17:00:34 435.800 - 435.900 CW/SSB
RS-15 16 Sep 16:55:43 17:02:57 20° 262° (W) 17:10:22 29.354 - 29.394 USB, Beacon 29.352 USB
Gurwin Techsat 1B 16 Sep 17:00:01 17:02:57 15° 275° (W) 17:05:54 435.225 FM
Uosat F 16 Sep 17:00:44 17:05:41 64° 257° (WSW) 17:10:41 435.120 FM
Hamsat 16 Sep 17:09:09 17:12:37 24° 61° (ENE) 17:16:05 145.90 MHz
AO-7 16 Sep 17:35:07 17:42:57 44° 261° (W) 17:50:50 29.400 - 29.500 MHz
JAS-2 16 Sep 17:41:23 17:46:27 52° 67° (ENE) 17:51:29 435.800 - 435.900 CW/SSB, 435.910 FM
MaSat-1 16 Sep 17:41:28 17:45:24 31° 41° (NE) 17:48:51 437.345 MHz
OPAL 16 Sep 17:44:10 17:48:52 33° 97° (E) 17:53:29 ?
Sapphire 16 Sep 18:06:16 18:10:03 19° 355° (N) 18:13:50 437.095 MHz 1200 baud AX-25 AFSK
HO-68 16 Sep 18:20:41 18:23:57 14° 32° (NNE) 18:27:14 435.675 MHz FM
PCSat 16 Sep 18:34:23 18:38:07 18° 3° (N) 18:41:51 145.825 MHz
Hamsat 16 Sep 18:44:02 18:48:18 53° 260° (W) 18:52:36 145.90 MHz
Uosat F 16 Sep 18:44:24 18:45:30 11° 277° (W) 18:46:38 435.120 FM
Saudisat 1A 16 Sep 18:49:47 18:53:43 32° 121° (ESE) 18:57:40 436.775 MHz
MaSat-1 16 Sep 19:18:22 19:22:22 43° 245° (WSW) 19:25:49 437.345 MHz
SO-67 16 Sep 19:21:18 19:24:43 65° 73° (ENE) 19:28:11 435.3500 MHz FM
OPAL 16 Sep 19:22:55 19:27:56 48° 297° (WNW) 19:32:51 ?
JAS-2 16 Sep 19:27:30 19:31:56 27° 267° (W) 19:36:21 435.800 - 435.900 CW/SSB, 435.910 FM
KITSAT 1 16 Sep 19:44:04 19:49:57 23° 104° (ESE) 19:55:50 435.175 FM
Sapphire 16 Sep 19:51:03 19:55:23 23° 21° (NNE) 19:59:42 437.095 MHz 1200 baud AX-25 AFSK
STRAND 1 16 Sep 19:58:15 20:03:09 43° 98° (E) 20:08:02 ?
HO-68 16 Sep 20:03:22 20:09:51 40° 56° (NE) 20:16:22 435.675 MHz FM
PCSat 16 Sep 20:18:34 20:23:17 29° 28° (NNE) 20:27:59 145.825 MHz
UKube-1 16 Sep 20:21:04 20:23:47 17° 55° (NE) 20:26:30 145.840 MHz, 145.915 MHz
Saudisat 1A 16 Sep 20:28:51 20:33:10 52° 322° (NW) 20:37:31 436.775 MHz
SO-67 16 Sep 20:56:41 20:58:11 12° 272° (W) 20:59:41 435.3500 MHz FM
OPAL 16 Sep 21:03:41 21:05:41 12° 318° (NW) 21:07:40 ?
FUNcube-1 16 Sep 21:24:08 21:27:21 20° 57° (ENE) 21:30:38 145.950 - 145.970 MHz USB
Sapphire 16 Sep 21:34:31 21:39:55 59° 44° (NE) 21:45:16 437.095 MHz 1200 baud AX-25 AFSK
KITSAT 1 16 Sep 21:36:06 21:44:11 78° 126° (SE) 21:52:17 435.175 FM
STRAND 1 16 Sep 21:37:39 21:42:18 36° 298° (WNW) 21:46:56 ?
Oscar 11 16 Sep 21:41:40 21:45:54 52° 69° (ENE) 21:50:11 145.825 FM, Beacon 2401.500 USB
HO-68 16 Sep 21:50:19 21:57:21 60° 257° (WSW) 22:04:27 435.675 MHz FM
UKube-1 16 Sep 21:55:05 21:59:26 85° 254° (WSW) 22:03:49 145.840 MHz, 145.915 MHz
PCSat 16 Sep 22:01:57 22:07:26 87° 51° (NE) 22:12:52 145.825 MHz
Saudisat 1A 16 Sep 22:10:14 22:13:39 21° 345° (NNW) 22:17:05 436.775 MHz
